STARLINK-34487 (64417 NORAD) Tracking and Keplerian Element Data

This shows tracking and keplerian element data for the satellite.

Feedback or suggestion? Click here.




ElementValue
Catalog64417
NameSTARLINK-34487
Epoch Orbit576
Epoch Day354.25003472
Epoch Year2025
RAAN274.6258
Inclination70.0017
Eccentricity0.0002985
Argument of Perigee275.3152
Mean Anonmoly353.0815
Mean Motion14.98336326
Decay Rate0.00025159
L11 64417U 25129F 25354.25003472 .00025159 00000+0 21084-2 0 9991
L22 64417 70.0017 274.6258 0002985 275.3152 353.0815 14.98336326 5760



Live tracking and technical data element details for STARLINK-34487 (NORAD 64417). STARLINK-34487 can be tracked NOW for your location showing map with azimuth and elevation plus other details from your city location.







IsCatalogInMostPopularTable: catalog: 64417, numindb: 9
Update: records affected: 1



GetName: 64417 STARLINK-34487

Hit Count: updated at: Thu, 16 Apr 2026 05:56:11 GMT